Williams, AZ

12:24 AM MST on September 28, 2016 (GMT -0700)
Williams

Weather History for KCMR - November, 2013

Change the Weather History Date:

Thursday, November 7, 2013

  Actual Average (KFLG) Record (KFLG)
Temperature  
Mean Temperature 45 °F 40 °F  
Max Temperature 62 °F 54 °F 71 °F (1934)
Min Temperature 28 °F 25 °F 8 °F (1947)
Degree Days  
Heating Degree Days 20 25  
Month to date heating degree days 170  
Since 1 July heating degree days 1053  
Cooling Degree Days 0 0  
Month to date cooling degree days 0  
Year to date cooling degree days 117  
Moisture  
Dew Point 4 °F    
Average Humidity 21    
Maximum Humidity 32    
Minimum Humidity 9    
Precipitation  
Precipitation 0.00 in 0.05 in 0.76 in (1969)
Month to date precipitation 0.40  
Year to date precipitation 18.63  
Sea Level Pressure  
Sea Level Pressure 30.41 in    
Wind  
Wind Speed 8 mph (SE)    
Max Wind Speed 16 mph    
Max Gust Speed 22 mph    
Visibility 10 miles    
Events      
T = Trace of Precipitation, MM = Missing Value Source: NWS Daily Summary

Daily Weather History Graph

Daily Weather History Graph

Search for Another Location

Airport or City:

Trip Planner

Search our weather history database for the weather conditions in past years. The results will help you decide how hot, cold, wet, or windy it might be!

Date:

Astronomy

Nov. 07, 2013 Rise Set
Actual Time 6:56 AM MST 5:28 PM MST
Civil Twilight 6:29 AM MST 5:54 PM MST
Nautical Twilight 5:59 AM MST 6:25 PM MST
Astronomical Twilight 5:29 AM MST 6:54 PM MST
Moon 11:06 AM MST (11/7) 9:45 PM MST (11/7)
Length of Visible Light 11h 25m
Length of Day
10h 31m
Waxing Crescent, 23% of the Moon is Illuminated
Nov 7
Waxing Crescent
Nov 9
First Quarter
Nov 17
Full
Nov 25
Last Quarter
Dec 2
New

Hourly Weather History & Observations

Time (MST) Temp. Windchill Dew Point Humidity Pressure Visibility Wind Dir Wind Speed Gust Speed Precip Events Conditions
12:15 AM 35.6 °F 28.0 °F -2.2 °F 20% 30.48 in 10.0 mi SE 10.4 mph - N/A   Clear
12:55 AM 35.6 °F 29.2 °F -4.0 °F 18% 30.48 in 10.0 mi SE 8.1 mph - N/A   Clear
1:15 AM 35.6 °F 29.9 °F -2.2 °F 20% 30.47 in 10.0 mi ESE 6.9 mph - N/A   Clear
1:35 AM 37.4 °F 33.8 °F -2.2 °F 19% 30.47 in 10.0 mi East 4.6 mph - N/A   Clear
1:55 AM 37.4 °F 32.8 °F -2.2 °F 19% 30.47 in 10.0 mi East 5.8 mph - N/A   Clear
2:15 AM 33.8 °F 29.6 °F -2.2 °F 22% 30.48 in 10.0 mi East 4.6 mph - N/A   Clear
2:35 AM 33.8 °F 27.7 °F -2.2 °F 22% 30.48 in 10.0 mi ESE 6.9 mph - N/A   Clear
2:55 AM 30.2 °F 21.3 °F -0.4 °F 27% 30.47 in 10.0 mi SE 10.4 mph - N/A   Clear
3:15 AM 32.0 °F 24.8 °F -0.4 °F 25% 30.47 in 10.0 mi SE 8.1 mph - N/A   Clear
3:35 AM 35.6 °F 29.2 °F -0.4 °F 22% 30.46 in 10.0 mi ESE 8.1 mph - N/A   Clear
3:55 AM 32.0 °F 24.8 °F -0.4 °F 25% 30.46 in 10.0 mi SE 8.1 mph - N/A   Clear
4:15 AM 33.8 °F 29.6 °F -0.4 °F 23% 30.46 in 10.0 mi SE 4.6 mph - N/A   Clear
4:35 AM 35.6 °F 30.7 °F 1.4 °F 24% 30.47 in 10.0 mi SE 5.8 mph - N/A   Clear
4:55 AM 35.6 °F 30.7 °F 1.4 °F 24% 30.47 in 10.0 mi SE 5.8 mph - N/A   Clear
5:15 AM 32.0 °F 24.2 °F 3.2 °F 30% 30.47 in 10.0 mi SE 9.2 mph - N/A   Clear
5:35 AM 28.4 °F 23.3 °F 1.4 °F 31% 30.47 in 10.0 mi East 4.6 mph - N/A   Clear
5:55 AM 35.6 °F 26.6 °F 1.4 °F 24% 30.46 in 10.0 mi SE 13.8 mph - N/A   Clear
6:15 AM 35.6 °F 27.5 °F 3.2 °F 26% 30.46 in 10.0 mi SE 11.5 mph - N/A   Clear
6:35 AM 35.6 °F 28.6 °F 3.2 °F 26% 30.45 in 10.0 mi SSE 9.2 mph - N/A   Clear
6:55 AM 35.6 °F 30.7 °F 5.0 °F 28% 30.45 in 10.0 mi SE 5.8 mph - N/A   Clear
7:15 AM 37.4 °F 30.8 °F 6.8 °F 28% 30.45 in 10.0 mi SE 9.2 mph - N/A   Clear
7:35 AM 39.2 °F 32.5 °F 6.8 °F 26% 30.45 in 10.0 mi SE 10.4 mph - N/A   Clear
7:55 AM 41.0 °F 34.7 °F 8.6 °F 26% 30.46 in 10.0 mi SE 10.4 mph - N/A   Clear
8:15 AM 42.8 °F 41.1 °F 8.6 °F 25% 30.47 in 10.0 mi SE 3.5 mph - N/A   Clear
8:35 AM 46.4 °F 41.5 °F 10.4 °F 23% 30.48 in 10.0 mi SE 10.4 mph - N/A   Clear
8:55 AM 48.2 °F - 8.6 °F 20% 30.48 in 10.0 mi SE 10.4 mph - N/A   Clear
9:15 AM 50.0 °F - 8.6 °F 19% 30.48 in 10.0 mi SE 16.1 mph 21.9 mph N/A   Clear
9:35 AM 51.8 °F - 8.6 °F 18% 30.47 in 10.0 mi SE 12.7 mph 18.4 mph N/A   Clear
9:55 AM 53.6 °F - 8.6 °F 16% 30.47 in 10.0 mi SE 13.8 mph - N/A   Clear
10:15 AM 55.4 °F - 8.6 °F 15% 30.47 in 10.0 mi SSE 13.8 mph - N/A   Clear
10:35 AM 55.4 °F - 8.6 °F 15% 30.46 in 10.0 mi SE 15.0 mph - N/A   Clear
10:55 AM 57.2 °F - 8.6 °F 14% 30.46 in 10.0 mi SE 11.5 mph - N/A   Clear
11:15 AM 57.2 °F - 8.6 °F 14% 30.45 in 10.0 mi SE 9.2 mph 16.1 mph N/A   Clear
11:35 AM 59.0 °F - 8.6 °F 14% 30.45 in 10.0 mi SE 11.5 mph 18.4 mph N/A   Clear
11:55 AM 59.0 °F - 8.6 °F 14% 30.44 in 10.0 mi SE 9.2 mph - N/A   Clear
12:15 PM 59.0 °F - 8.6 °F 14% 30.43 in 10.0 mi ESE 11.5 mph 16.1 mph N/A   Clear
12:35 PM 60.8 °F - 8.6 °F 13% 30.42 in 10.0 mi SE 6.9 mph - N/A   Clear
12:55 PM 62.6 °F - 8.6 °F 12% 30.41 in 10.0 mi East 6.9 mph - N/A   Clear
1:15 PM 62.6 °F - 8.6 °F 12% 30.40 in 10.0 mi SSW 3.5 mph - N/A   Clear
1:35 PM 62.6 °F - 8.6 °F 12% 30.39 in 10.0 mi Calm Calm - N/A   Clear
1:55 PM 62.6 °F - 8.6 °F 12% 30.38 in 10.0 mi SE 6.9 mph - N/A   Clear
2:15 PM 62.6 °F - 8.6 °F 12% 30.37 in 10.0 mi SSE 4.6 mph - N/A   Clear
2:35 PM 62.6 °F - 6.8 °F 11% 30.37 in 10.0 mi SSE 4.6 mph - N/A   Clear
2:55 PM 62.6 °F - 6.8 °F 11% 30.36 in 10.0 mi SE 4.6 mph - N/A   Clear
3:55 PM 62.6 °F - 3.2 °F 9% 30.35 in 10.0 mi SSE 6.9 mph - N/A   Clear
4:15 PM 60.8 °F - 1.4 °F 9% 30.35 in 10.0 mi SSE 10.4 mph - N/A   Clear
4:35 PM 59.0 °F - -0.4 °F 9% 30.35 in 10.0 mi SE 10.4 mph - N/A   Clear
4:55 PM 57.2 °F - 1.4 °F 10% 30.35 in 10.0 mi SSE 8.1 mph - N/A   Clear
5:15 PM 55.4 °F - 1.4 °F 11% 30.35 in 10.0 mi South 6.9 mph - N/A   Clear
5:35 PM 51.8 °F - 1.4 °F 13% 30.35 in 10.0 mi WSW 3.5 mph - N/A   Clear
5:55 PM 53.6 °F - -0.4 °F 11% 30.35 in 10.0 mi Calm Calm - N/A   Clear
6:15 PM 50.0 °F - 1.4 °F 14% 30.35 in 10.0 mi South 3.5 mph - N/A   Clear
6:35 PM 46.4 °F - 1.4 °F 16% 30.35 in 10.0 mi Calm Calm - N/A   Clear
6:55 PM 41.0 °F 39.0 °F 5.0 °F 23% 30.35 in 10.0 mi SE 3.5 mph - N/A   Clear
7:15 PM 41.0 °F 38.0 °F 5.0 °F 23% 30.35 in 10.0 mi SSE 4.6 mph - N/A   Clear
7:35 PM 37.4 °F 32.8 °F 5.0 °F 26% 30.36 in 10.0 mi SSE 5.8 mph - N/A   Clear
7:55 PM 35.6 °F 29.2 °F 5.0 °F 28% 30.35 in 10.0 mi SSE 8.1 mph - N/A   Clear
8:15 PM 37.4 °F 30.3 °F 6.8 °F 28% 30.34 in 10.0 mi SSE 10.4 mph - N/A   Clear
8:35 PM 37.4 °F 30.3 °F 5.0 °F 26% 30.35 in 10.0 mi SSE 10.4 mph - N/A   Clear
8:55 PM 37.4 °F 30.3 °F 5.0 °F 26% 30.35 in 10.0 mi SSE 10.4 mph - N/A   Clear
9:15 PM 37.4 °F 30.8 °F 6.8 °F 28% 30.35 in 10.0 mi SSE 9.2 mph - N/A   Clear
9:35 PM 35.6 °F 28.0 °F 6.8 °F 30% 30.35 in 10.0 mi SSE 10.4 mph - N/A   Clear
9:55 PM 35.6 °F 28.0 °F 6.8 °F 30% 30.35 in 10.0 mi SSE 10.4 mph - N/A   Clear
10:15 PM 35.6 °F 28.6 °F 6.8 °F 30% 30.35 in 10.0 mi SE 9.2 mph - N/A   Clear
10:35 PM 35.6 °F 28.6 °F 6.8 °F 30% 30.35 in 10.0 mi SSE 9.2 mph - N/A   Clear
10:55 PM 33.8 °F 27.0 °F 5.0 °F 30% 30.34 in 10.0 mi SSE 8.1 mph - N/A   Clear
11:15 PM 35.6 °F 28.6 °F 5.0 °F 28% 30.34 in 10.0 mi SSE 9.2 mph - N/A   Clear
11:35 PM 37.4 °F 32.1 °F 5.0 °F 26% 30.33 in 10.0 mi SSE 6.9 mph - N/A   Clear
11:55 PM 33.8 °F 26.4 °F 6.8 °F 32% 30.33 in 10.0 mi SE 9.2 mph - N/A   Clear